Miscellaneous Local Product
Issued by NWS North Platte, NE

Home | Current Version | Previous Version | Graphics & Text | Print | Product List | Glossary On
Versions: 1 2 3 4 5 6 7 8 9 10 11 12 13 14 15 16 17 18 19 20 21 22 23 24 25 26 27 28 29 30 31 32 33 34 35 36 37 38 39 40 41 42 43 44 45 46 47 48 49 50
000
AXUS43 KLBF 061910
MISLBF


WESTERN AND NORTH CENTRAL NEBRASKA HOURLY WEATHER ROUNDUP
NATIONAL WEATHER SERVICE NORTH PLATTE NE
200 PM CDT MON JUL 06 2015

***STATIONS NOT REPORTING VARIABLES SUCH AS SKY/WEATHER OR
PRESSURE ARE PROVIDED BY THE NEBRASKA DEPARTMENT OF
ROADS...RAWS...AND APRS NETWORKS...AND ARE NOT UNDER
NATIONAL WEATHER SERVICE QUALITY CONTROL***

...OBSERVATIONS IN AND NEAR THE EASTERN PANHANDLE OF NEBRASKA...

CITY           SKY/WX    TMP DP  RH WIND       PRES   REMARKS
PINE RIDGE     PTSUNNY   69  53  56 N10G16    30.23S HAZE
CHADRON        CLOUDY    69  55  60 VRB7      30.24S HAZE
ALLIANCE       PTSUNNY   68  54  60 N14       30.23S HAZE
SIDNEY         CLOUDY    69  52  54 N17       30.25S HAZE
WHITECLAY        N/A     68  53  58 NE12        N/A
CRESCENT LAKE    N/A     67  51  56 N12G20      N/A
BIG SPRINGS      N/A     74  54  49 N10         N/A
$$

...OBSERVATIONS IN NORTH CENTRAL NEBRASKA...

CITY           SKY/WX    TMP DP  RH WIND       PRES   REMARKS
VALENTINE      PTSUNNY   73  51  46 N17G24    30.15S
THEDFORD         N/A     73  55  53 N20G26    30.15S HAZE
AINSWORTH      MOSUNNY   73  54  51 N17G26    30.14F HAZE
O`NEILL        CLOUDY    74  59  59 N23G29    30.07F HAZE
ORD            PTSUNNY   74  56  53 N22G28    30.05S HAZE
BROKEN BOW     MOSUNNY   75  54  47 N15G31    30.09R HAZE
VALENTINE NWR    N/A     71  55  56 N14G23      N/A
SPRINGVIEW       N/A     72  54  52 N12G21      N/A
HALSEY           N/A     72  54  52 N12G23      N/A
BREWSTER         N/A     79  57  47 N21         N/A
ROSE             N/A     85  69  60 NE22        N/A
NEWPORT          N/A     75  55  49 S10         N/A
SARGENT          N/A     74  56  53 NE9G16      N/A
CHAMBERS         N/A     77  54  44 N12         N/A
EWING            N/A     73  60  65 N9G23       N/A
$$

...OBSERVATIONS IN SOUTHWEST NEBRASKA AND FAR NORTHEAST COLORADO...

CITY           SKY/WX    TMP DP  RH WIND       PRES   REMARKS
WRAY           CLOUDY    72  56  56 N15G21    30.19F
HOLYOKE        FAIR      77  55  47 N18       30.19F HAZE
IMPERIAL       CLOUDY    71  55  56 N15       30.16S
OGALLALA       MOSUNNY   74  53  48 NE16G22   30.18S HAZE
NORTH PLATTE   PTSUNNY   73  56  54 N20       30.13S
MCCOOK         CLOUDY    71  60  68 N20       30.10R HAZE
LEXINGTON      PTSUNNY   76  62  60 N18G24    30.08S HAZE
PAXTON           N/A     71  59  66 N12         N/A
GOTHENBURG       N/A     72  53  51 N14         N/A
CALLAWAY         N/A     72  62  69 N15         N/A
$$

...NORTH PLATTE AREA...

CITY           SKY/WX    TMP DP  RH WIND       PRES   REMARKS
AIRPORT        PTSUNNY   73  56  54 N20       30.13S
DOWNTOWN         N/A     72  58  60 N12G20      N/A
HILLCREST        N/A     72  57  58 NE18G25     N/A
$$

...SOME WEATHER OBSERVATIONS FROM AROUND THE REGION...

CITY           SKY/WX    TMP DP  RH WIND       PRES   REMARKS
DENVER         CLOUDY    61  58  90 NE13      30.30S
LARAMIE        CLOUDY    58  51  78 E7        30.35S
CHEYENNE       CLOUDY    56  52  86 NE8       30.34R FOG
SCOTTSBLUFF    CLOUDY    65  52  62 N8        30.26S HAZE
RAPID CITY     CLOUDY    68  54  60 NW9       30.23F
PIERRE         MOSUNNY   75  55  49 N15       30.12S
WINNER         PTSUNNY   75  53  46 N20       30.13R HAZE
SIOUX FALLS    CLOUDY    72  61  68 N20G29    30.01R HAZE
OMAHA          CLOUDY    76  71  85 W3        29.92R
GRAND ISLAND   CLOUDY    75  62  64 N18       30.02R
KANSAS CITY    PTSUNNY   88  77  69 S14       29.87F HX 100
WICHITA        MOSUNNY   95  70  44 S22       29.85F HX 101
HAYS           CLOUDY    73  63  68 N21G29    29.98R
LIBERAL        PTSUNNY   84  66  54 N24       30.02S
GOODLAND       CLOUDY    68  59  73 N20G29    30.16R
$$



USA.gov is the U.S. government's official web portal to all federal, state and local government web resources and services.